1504414801.13,27653,17.94,73110.0,-0.29,-1.05,-1.01,0,*6A
1504414802.37,27654,17.94,73112.0,-0.29,-1.13,-1.01,0,*6A
1504414803.61,27655,17.94,73118.0,-0.29,-1.13,-1.05,0,*6F
1504414804.85,27656,17.94,73112.8,-0.29,-1.13,-1.13,0,*6B
1504414806.1,27657,17.94,73112.5,-0.29,-1.13,-1.05,0,*6D
1504414807.34,27658,17.94,73104.5,-0.29,-1.13,-1.13,0,*65
1504414808.56,27659,17.94,73110.0,-0.29,-1.17,-1.05,0,*67
1504414809.78,27660,17.94,73112.3,-0.29,-1.25,-1.05,0,*6C
1504414810.99,27661,17.94,73114.5,-0.29,-1.25,-1.13,0,*6A
1504414812.26,27662,17.94,73116.3,-0.27,-1.13,-1.05,0,*65
1504414813.5,27663,17.94,73114.5,-0.29,-1.13,-1.05,0,*6A
1504414814.75,27664,17.94,73122.8,-0.29,-1.05,-1.05,0,*6A
1504414815.99,27665,17.94,73122.5,-0.29,-1.13,-1.05,0,*6C
1504414817.22,27666,17.94,73112.0,-0.29,-1.17,-1.05,0,*6B
1504414818.44,27667,17.94,73114.0,-0.29,-1.25,-1.05,0,*6B
1504414819.66,27668,17.94,73108.8,-0.29,-1.17,-1.13,0,*62
1504414820.88,27669,17.94,73112.5,-0.29,-1.17,-1.05,0,*64
1504414822.1,27670,17.94,73110.0,-0.29,-1.25,-1.05,0,*6D
1504414823.32,27671,17.94,73114.8,-0.29,-1.17,-1.05,0,*6D
1504414824.57,27672,17.94,73112.8,-0.29,-1.13,-1.05,0,*6A
1504414825.81,27673,17.94,73112.5,-0.29,-1.13,-1.01,0,*6F
1504414827.05,27674,17.94,73122.0,-0.29,-1.05,-1.01,0,*6F
1504414828.3,27675,17.94,73120.8,-0.29,-1.13,-1.01,0,*69
1504414829.56,27676,17.94,73126.3,-0.31,-1.09,-1.05,0,*6C
1504414830.8,27677,17.94,73132.3,-0.29,-1.05,-1.01,0,*6C
1504414832.05,27678,17.94,73134.0,-0.29,-1.13,-1.01,0,*64
1504414833.29,27679,17.94,73116.5,-0.29,-1.13,-1.05,0,*61
1504414834.5,27680,17.94,73118.8,-0.29,-1.25,-1.13,0,*65
1504414835.72,27681,17.94,73120.5,-0.29,-1.17,-1.13,0,*65
1504414836.95,27682,17.94,73120.0,-0.29,-1.17,-1.05,0,*61
1504414838.16,27683,17.94,73122.5,-0.29,-1.25,-1.13,0,*66
1504414839.36,27684,17.94,73120.5,-0.29,-1.29,-1.21,0,*6C
1504414840.58,27685,17.94,73120.8,-0.29,-1.39,-1.17,0,*69
1504414841.77,27686,17.94,73122.8,-0.29,-1.29,-1.25,0,*6A
1504414842.98,27687,17.94,73120.0,-0.29,-1.35,-1.25,0,*66
1504414844.23,27688,17.94,73116.5,-0.29,-1.47,-1.35,0,*6D
1504414845.48,27689,17.94,73120.0,-0.29,-1.47,-1.35,0,*6C
1504414846.72,27690,17.94,73122.5,-0.33,-1.47,-1.43,0,*6E
1504414848.0,27691,17.94,73126.8,-0.31,-1.39,-1.39,0,*69
1504414849.27,27692,17.94,73126.3,-0.31,-1.43,-1.39,0,*67
1504414850.53,27693,17.94,73128.5,-0.31,-1.43,-1.43,0,*6B
1504414851.81,27694,17.94,73124.8,-0.31,-1.43,-1.39,0,*61
1504414853.05,27695,17.94,73124.5,-0.33,-1.43,-1.43,0,*6F
1504414854.29,27696,17.94,73118.5,-0.31,-1.51,-1.39,0,*60
1504414855.5,27697,17.94,73114.8,-0.33,-1.59,-1.35,0,*67
1504414856.74,27698,17.94,73114.5,-0.31,-1.43,-1.29,0,*6C
1504414857.93,27699,17.94,73108.3,-0.33,-1.55,-1.33,0,*63
1504414859.2,27700,17.94,73106.0,-0.31,-1.43,-1.39,0,*6D
1504414860.44,27701,17.94,73104.0,-0.31,-1.43,-1.29,0,*6D
1504414861.69,27702,17.94,73106.8,-0.31,-1.43,-1.29,0,*6E
1504414862.9,27703,17.94,73108.8,-0.33,-1.43,-1.25,0,*61
1504414864.12,27704,17.94,73110.8,-0.33,-1.35,-1.21,0,*63
1504414865.34,27705,17.94,73104.0,-0.33,-1.35,-1.21,0,*62
1504414866.56,27706,17.94,73112.5,-0.31,-1.29,-1.17,0,*6B
1504414867.8,27707,17.94,73114.0,-0.31,-1.21,-1.09,0,*6D
1504414869.04,27708,17.94,73118.0,-0.31,-1.29,-1.09,0,*6A
1504414870.26,27709,17.94,73116.0,-0.33,-1.25,-1.13,0,*6E
1504414871.47,27710,17.94,73108.5,-0.33,-1.33,-1.13,0,*61
1504414872.68,27711,17.94,73114.3,-0.33,-1.25,-1.13,0,*67
1504414873.88,27712,17.94,73118.8,-0.33,-1.25,-1.21,0,*65
1504414875.12,27713,17.94,73120.8,-0.31,-1.29,-1.09,0,*60
1504414876.34,27714,17.94,73114.5,-0.31,-1.29,-1.17,0,*68
1504414877.54,27715,17.94,73112.0,-0.33,-1.33,-1.21,0,*65
1504414878.74,27716,17.94,73110.8,-0.33,-1.33,-1.21,0,*66
1504414879.98,27717,17.94,73108.8,-0.31,-1.29,-1.09,0,*64
1504414881.22,27718,17.94,73122.0,-0.31,-1.21,-1.09,0,*63
1504414882.46,27719,17.94,73116.3,-0.31,-1.21,-1.09,0,*62
1504414883.66,27720,17.94,73112.8,-0.33,-1.25,-1.21,0,*64
1504414884.9,27721,17.94,73118.0,-0.31,-1.29,-1.13,0,*6A
1504414886.09,27722,17.94,73116.0,-0.33,-1.25,-1.21,0,*66
1504414887.31,27723,17.94,73118.0,-0.33,-1.25,-1.13,0,*66
1504414888.55,27724,17.94,73110.8,-0.31,-1.21,-1.09,0,*6C
1504414889.79,27725,17.94,73102.5,-0.31,-1.29,-1.09,0,*65
1504414890.99,27726,17.94,73106.8,-0.33,-1.33,-1.21,0,*65
1504414892.19,27727,17.94,73106.5,-0.33,-1.33,-1.21,0,*64
1504414893.4,27728,17.94,73104.5,-0.33,-1.33,-1.13,0,*6A
1504414894.62,27729,17.94,73108.0,-0.33,-1.33,-1.13,0,*6B
1504414895.89,27730,17.94,73110.0,-0.31,-1.39,-1.09,0,*60
1504414897.11,27731,17.94,73106.3,-0.31,-1.33,-1.17,0,*64
1504414898.35,27732,17.94,73108.5,-0.31,-1.33,-1.09,0,*68
1504414899.57,27733,17.94,73108.3,-0.33,-1.43,-1.21,0,*66
1504414900.81,27734,17.94,73114.0,-0.31,-1.33,-1.09,0,*6E
1504414902.05,27735,17.94,73108.3,-0.31,-1.33,-1.09,0,*6F
1504414903.29,27736,17.94,73110.0,-0.31,-1.29,-1.09,0,*67
1504414904.54,27737,17.94,73116.0,-0.31,-1.21,-1.05,0,*62
1504414905.79,27738,17.94,73112.5,-0.31,-1.21,-1.05,0,*6D
1504414907.03,27739,17.94,73118.5,-0.31,-1.21,-1.05,0,*6C
1504414908.28,27740,17.94,73116.3,-0.31,-1.21,-1.05,0,*62
1504414909.52,27741,17.94,73114.0,-0.29,-1.05,-1.01,0,*68
1504414910.76,27742,17.94,73116.8,-0.29,-1.13,-1.01,0,*6C
1504414911.98,27743,17.94,73116.3,-0.29,-1.17,-0.97,0,*57
1504414913.19,27744,17.94,73120.8,-0.29,-1.17,-0.97,0,*50
1504414914.42,27745,17.94,73120.8,-0.29,-1.17,-1.01,0,*6F
1504414915.63,27746,17.94,73124.8,-0.29,-1.25,-1.05,0,*69
1504414916.87,27747,17.94,73116.8,-0.29,-1.35,-1.13,0,*6E
1504414918.09,27748,17.94,73110.3,-0.29,-1.29,-1.13,0,*6C
1504414919.28,27749,17.94,73110.0,-0.29,-1.29,-1.17,0,*69
1504414920.5,27750,17.94,73100.5,-0.29,-1.39,-1.17,0,*60
1504414921.73,27751,17.94,73100.0,-0.29,-1.39,-1.17,0,*61
1504414922.92,27752,17.94,73100.5,-0.29,-1.29,-1.25,0,*62
1504414924.13,27753,17.94,73100.0,-0.29,-1.29,-1.13,0,*66
1504414925.35,27754,17.94,73108.0,-0.29,-1.29,-1.13,0,*61
1504414926.57,27755,17.94,73106.8,-0.29,-1.29,-1.05,0,*67
1504414927.78,27756,17.94,73098.3,-0.29,-1.25,-1.13,0,*6F
1504414929.03,27757,17.94,73100.5,-0.31,-1.29,-1.09,0,*60
1504414930.27,27758,17.94,73112.5,-0.31,-1.29,-1.09,0,*6F
1504414931.51,27759,17.94,73108.0,-0.31,-1.29,-1.09,0,*6E
1504414932.75,27760,17.94,73106.3,-0.31,-1.21,-1.09,0,*6C
1504414933.99,27761,17.94,73110.5,-0.27,-1.17,-1.05,0,*63
1504414935.24,27762,17.94,73110.5,-0.29,-1.13,-1.05,0,*6A
1504414936.48,27763,17.94,73114.3,-0.29,-1.05,-1.01,0,*68
1504414937.75,27764,17.94,73114.3,-0.31,-1.09,-1.05,0,*6E
1504414939.0,27765,17.94,73114.5,-0.31,-1.17,-1.05,0,*60
1504414940.26,27766,17.94,73118.5,-0.31,-1.09,-1.05,0,*6C
1504414941.5,27767,17.94,73116.3,-0.31,-1.21,-1.09,0,*6B
1504414942.74,27768,17.94,73116.3,-0.31,-1.21,-1.09,0,*64
1504414943.99,27769,17.94,73116.3,-0.31,-1.39,-1.21,0,*66
1504414945.24,27770,17.94,73120.3,-0.31,-1.39,-1.21,0,*6E
1504414946.46,27771,17.94,73112.5,-0.29,-1.35,-1.17,0,*6F
1504414947.67,27772,17.94,73116.8,-0.31,-1.33,-1.25,0,*62
1504414948.89,27773,17.94,73116.5,-0.29,-1.35,-1.25,0,*6C
1504414950.13,27774,17.94,73112.3,-0.31,-1.43,-1.29,0,*6F
1504414951.38,27775,17.94,73108.8,-0.29,-1.39,-1.35,0,*67
1504414952.62,27776,17.94,73100.8,-0.31,-1.43,-1.33,0,*66
1504414953.86,27777,17.94,73108.8,-0.31,-1.43,-1.29,0,*6C
1504414955.08,27778,17.94,73104.5,-0.33,-1.39,-1.33,0,*67
1504414956.3,27779,17.94,73110.5,-0.31,-1.33,-1.21,0,*6D
1504414957.52,27780,17.94,73110.0,-0.31,-1.33,-1.17,0,*6E
1504414958.76,27781,17.94,73118.5,-0.31,-1.29,-1.09,0,*6B
1504414960.0,27782,17.94,73118.5,-0.31,-1.21,-1.09,0,*60
1504414961.24,27783,17.94,73112.8,-0.31,-1.21,-1.09,0,*61
1504414962.46,27784,17.94,73110.3,-0.31,-1.21,-1.17,0,*69
1504414963.68,27785,17.94,73112.0,-0.31,-1.21,-1.17,0,*68
1504414964.9,27786,17.94,73114.3,-0.33,-1.21,-1.13,0,*6D
1504414966.14,27787,17.94,73112.8,-0.31,-1.21,-1.09,0,*65
1504414967.38,27788,17.94,73110.8,-0.31,-1.21,-1.09,0,*6A
1504414968.63,27789,17.94,73108.3,-0.29,-1.13,-1.05,0,*6F
1504414969.84,27790,17.94,73112.5,-0.29,-0.85,-0.77,0,*6D
1504414971.06,27791,17.94,73110.5,-0.29,0.95,0.71,0,*6B
1504414972.31,27792,17.94,73118.8,-0.27,1.09,0.83,0,*5F
1504414973.55,27793,17.94,73118.5,-0.27,0.75,0.51,0,*6B
1504414974.79,27794,17.94,73122.5,-0.27,0.51,0.37,0,*6A
1504414976.01,27795,17.94,73122.0,-0.25,0.41,0.25,0,*6B
1504414977.22,27796,17.94,73118.5,-0.25,0.25,0.13,0,*6F
1504414978.43,27797,17.94,73116.8,-0.23,0.13,0.01,0,*5E
1504414979.61,27798,17.94,73108.3,-0.23,0.05,0.01,0,*66
1504414980.82,27799,17.94,73108.8,-0.23,-0.07,-0.11,0,*54
1504414981.99,27800,17.94,73114.0,-0.21,-0.07,-0.19,0,*51
1504414983.21,27801,17.94,73112.3,-0.21,-0.23,-0.23,0,*6F
1504414984.45,27802,17.94,73118.5,-0.17,-0.23,-0.33,0,*68
1504414985.63,27803,17.94,73120.3,-0.21,-0.33,-0.45,0,*6C
1504414986.8,27804,17.94,73118.3,-0.21,-0.45,-0.57,0,*69
1504414988.01,27805,17.94,73114.5,-0.17,-0.65,-0.69,0,*62
1504414989.19,27806,17.94,73112.5,-0.21,-0.69,-0.77,0,*67
1504414990.37,27807,17.94,73118.0,-0.21,-0.77,-0.81,0,*60
1504414991.58,27808,17.94,73110.3,-0.21,-0.81,-0.89,0,*6E
1504414992.8,27809,17.94,73108.3,-0.21,-0.89,-0.89,0,*67
1504414994.02,27810,17.94,73104.5,-0.21,-0.93,-0.93,0,*6F
1504414995.27,27811,17.94,73108.5,-0.17,-0.93,-0.93,0,*6B
1504414996.53,27812,17.94,73112.0,-0.23,-1.01,-1.01,0,*6F
1504414997.77,27813,17.94,73110.8,-0.25,-1.01,-1.09,0,*60
1504414998.99,27814,17.94,73110.3,-0.23,-1.21,-1.21,0,*69
1504415000.19,27815,17.94,73110.0,-0.25,-1.33,-1.25,0,*69
1504415001.4,27816,17.94,73108.8,-0.25,-1.35,-1.25,0,*6C
1504415002.62,27817,17.94,73106.5,-0.25,-1.55,-1.47,0,*6F
1504415003.8,27818,17.94,73102.3,-0.25,-1.59,-1.55,0,*6F
1504415004.99,27819,17.94,73108.5,-0.25,-1.59,-1.55,0,*6E
1504415006.23,27820,17.94,73114.8,-0.25,-1.43,-1.43,0,*68
1504415007.5,27821,17.94,73114.5,-0.27,-1.47,-1.47,0,*6B
1504415008.71,27822,17.94,73120.5,-0.27,-1.51,-1.51,0,*68
1504415009.89,27823,17.94,73120.3,-0.29,-1.59,-1.51,0,*6F
1504415011.08,27824,17.94,73112.8,-0.29,-1.59,-1.51,0,*68
1504415012.27,27825,17.94,73108.5,-0.29,-1.63,-1.63,0,*61
1504415013.46,27826,17.94,73114.0,-0.29,-1.63,-1.59,0,*6B
1504415014.66,27827,17.94,73114.3,-0.29,-1.71,-1.63,0,*60
1504415015.86,27828,17.94,73120.8,-0.29,-1.71,-1.63,0,*6F
1504415017.05,27829,17.94,73114.8,-0.29,-1.75,-1.71,0,*69
1504415018.28,27830,17.94,73118.3,-0.33,-1.83,-1.71,0,*63
1504415019.47,27831,17.94,73108.5,-0.33,-1.79,-1.67,0,*60
1504415020.66,27832,17.94,73112.0,-0.33,-1.67,-1.55,0,*6D
1504415021.85,27833,17.94,73106.3,-0.33,-1.79,-1.79,0,*6D
1504415023.05,27834,17.94,73104.0,-0.33,-1.79,-1.79,0,*6A
1504415024.27,27835,17.94,73106.0,-0.33,-1.83,-1.79,0,*6E
1504415025.51,27836,17.94,73110.3,-0.33,-1.91,-1.83,0,*6B
1504415026.75,27837,17.94,73114.3,-0.33,-1.95,-1.83,0,*6E
1504415027.99,27838,17.94,73108.0,-0.33,-1.95,-1.95,0,*66
1504415029.23,27839,17.94,73106.5,-0.37,-1.99,-1.87,0,*6C
1504415030.5,27840,17.94,73112.3,-0.35,-1.91,-1.91,0,*6F
1504415031.74,27841,17.94,73114.5,-0.37,-1.87,-1.87,0,*6C
1504415032.98,27842,17.94,73112.5,-0.37,-1.87,-1.95,0,*6C
1504415034.21,27843,17.94,73112.5,-0.37,-1.87,-1.95,0,*6D
1504415035.45,27844,17.94,73106.3,-0.37,-1.95,-1.99,0,*65
1504415036.73,27845,17.94,73110.8,-0.39,-1.99,-1.87,0,*69
1504415037.99,27846,17.94,73116.8,-0.39,-1.87,-1.87,0,*65
1504415039.25,27847,17.94,73114.8,-0.43,-1.91,-1.91,0,*69
1504415040.52,27848,17.94,73110.8,-0.43,-1.99,-1.91,0,*6E
1504415041.79,27849,17.94,73118.5,-0.39,-1.87,-1.87,0,*6A
1504415043.06,27850,17.94,73118.5,-0.39,-1.95,-1.87,0,*61
1504415044.32,27851,17.94,73112.3,-0.39,-1.87,-1.87,0,*63
1504415045.56,27852,17.94,73116.0,-0.45,-1.95,-1.95,0,*6B
1504415046.79,27853,17.94,73112.5,-0.45,-1.95,-1.95,0,*6A
1504415048.02,27854,17.94,73108.5,-0.45,-1.95,-1.95,0,*6D
1504415049.26,27855,17.94,73114.8,-0.45,-1.95,-1.91,0,*68
1504415050.5,27856,17.94,73112.8,-0.45,-1.95,-1.91,0,*6B
1504415051.74,27857,17.94,73114.3,-0.45,-2.03,-1.91,0,*66
1504415053.0,27858,17.94,73116.8,-0.47,-1.95,-1.91,0,*67
1504415054.26,27859,17.94,73120.0,-0.47,-1.95,-1.91,0,*66
1504415055.52,27860,17.94,73126.5,-0.47,-1.95,-1.91,0,*6C
1504415056.78,27861,17.94,73124.5,-0.47,-1.95,-1.95,0,*69
1504415058.04,27862,17.94,73122.5,-0.47,-1.91,-1.91,0,*6A
1504415059.28,27863,17.94,73112.3,-0.47,-1.91,-1.79,0,*6D
1504415060.52,27864,17.94,73106.8,-0.47,-1.91,-1.79,0,*6A
1504415061.78,27865,17.94,73102.5,-0.47,-1.91,-1.91,0,*6D
1504415063.04,27866,17.94,73096.3,-0.47,-2.03,-1.91,0,*66
1504415064.31,27867,17.94,73100.5,-0.47,-2.03,-1.83,0,*64
1504415065.56,27868,17.94,73100.5,-0.49,-1.99,-1.87,0,*61
1504415066.81,27869,17.94,73096.3,-0.49,-1.99,-1.83,0,*64
1504415068.06,27870,17.94,73092.8,-0.49,-1.99,-1.87,0,*68
1504415069.28,27871,17.94,73082.0,-0.49,-1.87,-1.75,0,*6B
1504415070.5,27872,17.94,73082.3,-0.49,-1.87,-1.75,0,*68
1504415071.74,27873,17.94,73090.0,-0.51,-1.83,-1.63,0,*63
1504415072.99,27874,17.94,73098.0,-0.51,-1.83,-1.71,0,*67
1504415074.18,27875,17.94,73096.5,-0.49,-1.75,-1.59,0,*6C
1504415075.38,27876,17.94,73104.0,-0.49,-1.71,-1.51,0,*63
1504415076.58,27877,17.94,73110.3,-0.49,-1.71,-1.63,0,*63
1504415077.78,27878,17.94,73096.8,-0.49,-1.75,-1.71,0,*6B
1504415078.99,27879,17.94,73092.0,-0.51,-1.75,-1.63,0,*60
1504415080.19,27880,17.94,73102.5,-0.49,-1.71,-1.63,0,*6B
1504415081.39,27881,17.94,73104.8,-0.49,-1.71,-1.63,0,*6A
1504415082.58,27882,17.94,73108.0,-0.49,-1.63,-1.59,0,*63
1504415083.77,27883,17.94,73106.8,-0.49,-1.71,-1.51,0,*69
1504415084.96,27884,17.94,73108.3,-0.49,-1.59,-1.51,0,*64
1504415086.15,27885,17.94,73112.0,-0.49,-1.59,-1.51,0,*65
1504415087.37,27886,17.94,73112.5,-0.49,-1.59,-1.39,0,*68
1504415088.58,27887,17.94,73116.5,-0.49,-1.51,-1.39,0,*61
1504415089.8,27888,17.94,73112.0,-0.49,-1.59,-1.47,0,*6F
1504415090.99,27889,17.94,73112.0,-0.49,-1.63,-1.51,0,*60
1504415092.18,27890,17.94,73122.8,-0.49,-1.71,-1.59,0,*63
1504415093.38,27891,17.94,73116.5,-0.49,-1.71,-1.51,0,*6A
1504415094.58,27892,17.94,73112.0,-0.49,-1.71,-1.71,0,*6B
1504415095.78,27893,17.94,73102.0,-0.49,-1.71,-1.59,0,*60
1504415096.98,27894,17.94,73106.0,-0.49,-1.71,-1.63,0,*6E
1504415098.2,27895,17.94,73088.8,-0.49,-1.83,-1.71,0,*61
1504415099.42,27896,17.94,73102.5,-0.51,-1.75,-1.63,0,*61
1504415100.64,27897,17.94,73098.3,-0.49,-1.83,-1.63,0,*60
1504415101.83,27898,17.94,73098.8,-0.49,-1.75,-1.63,0,*66
1504415103.02,27899,17.94,73104.5,-0.49,-1.75,-1.63,0,*67
1504415104.22,27900,17.94,73102.3,-0.49,-1.71,-1.63,0,*62
1504415105.42,27901,17.94,73092.5,-0.49,-1.71,-1.63,0,*63
1504415106.64,27902,17.94,73096.0,-0.51,-1.71,-1.63,0,*69
1504415107.83,27903,17.94,73096.8,-0.49,-1.63,-1.59,0,*6B
1504415109.03,27904,17.94,73102.3,-0.49,-1.71,-1.59,0,*6F
1504415110.25,27905,17.94,73098.8,-0.51,-1.71,-1.59,0,*67
1504415111.47,27906,17.94,73102.0,-0.51,-1.71,-1.51,0,*6C
1504415112.66,27907,17.94,73106.3,-0.49,-1.63,-1.51,0,*67
1504415113.85,27908,17.94,73106.8,-0.49,-1.63,-1.51,0,*68
1504415115.07,27909,17.94,73110.5,-0.49,-1.63,-1.47,0,*6E
1504415116.31,27910,17.94,73110.5,-0.51,-1.59,-1.39,0,*6F
1504415117.52,27911,17.94,73108.8,-0.49,-1.59,-1.39,0,*67
1504415118.71,27912,17.94,73112.8,-0.49,-1.63,-1.51,0,*63
1504415119.93,27913,17.94,73114.8,-0.49,-1.63,-1.47,0,*65
1504415121.12,27914,17.94,73114.3,-0.49,-1.59,-1.51,0,*6C
1504415122.34,27915,17.94,73114.5,-0.51,-1.71,-1.51,0,*6E
1504415123.53,27916,17.94,73110.0,-0.49,-1.63,-1.59,0,*6F
1504415124.73,27917,17.94,73106.8,-0.49,-1.71,-1.59,0,*6D
1504415125.94,27918,17.94,73108.5,-0.51,-1.71,-1.59,0,*6B
1504415127.14,27919,17.94,73106.5,-0.49,-1.63,-1.51,0,*68
1504415128.35,27920,17.94,73100.3,-0.49,-1.63,-1.47,0,*65
1504415129.59,27921,17.94,73106.5,-0.51,-1.59,-1.47,0,*64
1504415130.83,27922,17.94,73106.0,-0.51,-1.59,-1.47,0,*67
1504415132.05,27923,17.94,73102.3,-0.49,-1.51,-1.47,0,*67
1504415133.26,27924,17.94,73106.0,-0.49,-1.63,-1.47,0,*61
1504415134.45,27925,17.94,73096.0,-0.49,-1.59,-1.51,0,*6E
1504415135.67,27926,17.94,73102.5,-0.49,-1.51,-1.39,0,*6B
1504415136.88,27927,17.94,73100.3,-0.49,-1.51,-1.35,0,*66
1504415138.1,27928,17.94,73106.0,-0.49,-1.51,-1.35,0,*69
1504415139.37,27929,17.94,73106.0,-0.51,-1.47,-1.35,0,*66
1504415140.62,27930,17.94,73100.0,-0.49,-1.39,-1.35,0,*6E
1504415141.87,27931,17.94,73102.0,-0.49,-1.39,-1.35,0,*6F
1504415143.09,27932,17.94,73110.5,-0.49,-1.47,-1.29,0,*68
1504415144.33,27933,17.94,73096.5,-0.49,-1.47,-1.35,0,*64
1504415145.55,27934,17.94,73098.3,-0.49,-1.51,-1.35,0,*64
1504415146.79,27935,17.94,73100.5,-0.47,-1.43,-1.33,0,*6E
1504415148.04,27936,17.94,73094.8,-0.49,-1.39,-1.35,0,*68
1504415149.27,27937,17.94,73084.3,-0.47,-1.35,-1.33,0,*6D
1504415150.51,27938,17.94,73072.5,-0.47,-1.43,-1.33,0,*63
1504415151.74,27939,17.94,73086.5,-0.47,-1.35,-1.33,0,*63
1504415152.99,27940,17.94,73090.5,-0.49,-1.39,-1.35,0,*69
1504415154.24,27941,17.94,73088.8,-0.49,-1.47,-1.35,0,*61
1504415155.46,27942,17.94,73084.5,-0.49,-1.39,-1.29,0,*66
1504415156.68,27943,17.94,73096.5,-0.49,-1.35,-1.29,0,*6B
1504415157.88,27944,17.94,73102.0,-0.49,-1.29,-1.29,0,*61
1504415159.09,27945,17.94,73100.8,-0.47,-1.25,-1.21,0,*6A
1504415160.31,27946,17.94,73100.5,-0.47,-1.17,-1.17,0,*6D
1504415161.53,27947,17.94,73102.0,-0.45,-1.17,-1.05,0,*6D
1504415162.79,27948,17.94,73106.8,-0.47,-1.09,-1.09,0,*63
1504415164.03,27949,17.94,73104.5,-0.47,-1.17,-1.09,0,*6D
1504415165.25,27950,17.94,73100.8,-0.47,-1.21,-1.17,0,*6F
1504415166.45,27951,17.94,73106.3,-0.45,-1.17,-1.17,0,*69
1504415167.64,27952,17.94,73108.0,-0.45,-1.25,-1.17,0,*6B
1504415168.85,27953,17.94,73102.8,-0.47,-1.25,-1.21,0,*6D
1504415170.06,27954,17.94,73102.8,-0.47,-1.25,-1.17,0,*6F
1504415171.26,27955,17.94,73106.0,-0.45,-1.25,-1.21,0,*69
1504415172.45,27956,17.94,73102.0,-0.45,-1.25,-1.21,0,*6A
1504415173.64,27957,17.94,73106.0,-0.45,-1.25,-1.21,0,*6B
1504415174.86,27958,17.94,73100.0,-0.47,-1.25,-1.21,0,*66
1504415176.05,27959,17.94,73108.3,-0.45,-1.25,-1.21,0,*65
1504415177.25,27960,17.94,73108.3,-0.45,-1.33,-1.21,0,*68
1504415178.46,27961,17.94,73104.3,-0.47,-1.33,-1.25,0,*6F
1504415179.65,27962,17.94,73110.0,-0.45,-1.33,-1.25,0,*6E
1504415180.84,27963,17.94,73114.5,-0.45,-1.33,-1.33,0,*68
1504415182.08,27964,17.94,73116.3,-0.45,-1.43,-1.35,0,*6E
1504415183.32,27965,17.94,73118.8,-0.47,-1.43,-1.33,0,*6B
1504415184.56,27966,17.94,73110.8,-0.45,-1.47,-1.35,0,*68
1504415185.78,27967,17.94,73108.3,-0.45,-1.59,-1.47,0,*63
1504415186.97,27968,17.94,73102.0,-0.45,-1.71,-1.59,0,*69
1504415188.18,27969,17.94,73102.0,-0.47,-1.79,-1.67,0,*6F
1504415189.38,27970,17.94,73104.0,-0.45,-1.79,-1.71,0,*62
1504415190.57,27971,17.94,73106.3,-0.45,-1.79,-1.79,0,*6B
1504415191.81,27972,17.94,73104.0,-0.47,-1.91,-1.79,0,*6C
1504415193.05,27973,17.94,73110.5,-0.47,-1.83,-1.79,0,*6E
1504415194.29,27974,17.94,73110.8,-0.47,-1.83,-1.71,0,*61
1504415195.53,27975,17.94,73110.0,-0.47,-1.91,-1.79,0,*6B
1504415196.77,27976,17.94,73110.8,-0.47,-1.83,-1.71,0,*63
1504415198.02,27977,17.94,73108.0,-0.47,-1.83,-1.79,0,*6A
1504415199.25,27978,17.94,73110.3,-0.47,-1.91,-1.79,0,*66
1504415200.47,27979,17.94,73102.3,-0.47,-1.79,-1.71,0,*69
1504415201.71,27980,17.94,73104.0,-0.49,-1.95,-1.83,0,*6E
1504415202.93,27981,17.94,73108.3,-0.49,-1.83,-1.75,0,*61
1504415204.18,27982,17.94,73106.3,-0.51,-1.83,-1.71,0,*6F
1504415205.4,27983,17.94,73096.8,-0.49,-1.87,-1.75,0,*67
1504415206.67,27984,17.94,73096.5,-0.51,-1.87,-1.83,0,*60
1504415207.86,27985,17.94,73090.3,-0.49,-1.75,-1.63,0,*6B
1504415209.08,27986,17.94,73080.3,-0.51,-1.75,-1.59,0,*68
1504415210.29,27987,17.94,73078.0,-0.51,-1.63,-1.51,0,*66
1504415211.53,27988,17.94,73074.3,-0.51,-1.59,-1.39,0,*6E
1504415212.77,27989,17.94,73078.0,-0.51,-1.51,-1.39,0,*67
1504415214.04,27990,17.94,73086.8,-0.51,-1.47,-1.35,0,*64
1504415215.26,27991,17.94,73086.0,-0.49,-1.47,-1.29,0,*61
1504415216.5,27992,17.94,73096.8,-0.51,-1.39,-1.29,0,*62
1504415217.74,27993,17.94,73096.8,-0.51,-1.35,-1.29,0,*6F
1504415218.96,27994,17.94,73106.8,-0.49,-1.35,-1.25,0,*6D
1504415220.17,27995,17.94,73096.5,-0.49,-1.35,-1.25,0,*6C
1504415221.39,27996,17.94,73094.5,-0.49,-1.39,-1.29,0,*6F
1504415222.59,27997,17.94,73098.8,-0.49,-1.29,-1.29,0,*6F
1504415223.81,27998,17.94,73100.0,-0.49,-1.35,-1.29,0,*6D
1504415225.02,27999,17.94,73108.3,-0.47,-1.25,-1.21,0,*6B
1504415226.22,28000,17.94,73112.5,-0.45,-1.25,-1.21,0,*6F
1504415227.43,28001,17.94,73112.8,-0.47,-1.25,-1.17,0,*69
1504415228.65,28002,17.94,73114.5,-0.47,-1.25,-1.21,0,*6F
1504415229.86,28003,17.94,73122.3,-0.47,-1.25,-1.17,0,*6B
1504415231.07,28004,17.94,73120.8,-0.47,-1.25,-1.21,0,*69
1504415232.29,28005,17.94,73114.3,-0.47,-1.25,-1.21,0,*68
1504415233.49,28006,17.94,73112.8,-0.45,-1.33,-1.21,0,*6E
1504415234.7,28007,17.94,73110.8,-0.47,-1.25,-1.21,0,*6A
1504415235.92,28008,17.94,73110.0,-0.47,-1.25,-1.21,0,*65
1504415237.14,28009,17.94,73108.5,-0.47,-1.25,-1.21,0,*64
1504415238.35,28010,17.94,73112.8,-0.47,-1.33,-1.17,0,*6E
1504415239.55,28011,17.94,73108.3,-0.45,-1.33,-1.21,0,*68
1504415240.76,28012,17.94,73120.8,-0.47,-1.25,-1.17,0,*6B
1504415241.98,28013,17.94,73124.5,-0.47,-1.33,-1.17,0,*6D
1504415243.17,28014,17.94,73118.5,-0.45,-1.33,-1.21,0,*6D
1504415244.41,28015,17.94,73118.0,-0.47,-1.35,-1.21,0,*68
1504415245.63,28016,17.94,73106.3,-0.45,-1.35,-1.25,0,*6D
1504415246.86,28017,17.94,73098.5,-0.47,-1.55,-1.35,0,*69
1504415248.11,28018,17.94,73092.8,-0.45,-1.47,-1.35,0,*67
1504415249.34,28019,17.94,73098.3,-0.47,-1.43,-1.33,0,*66
1504415250.56,28020,17.94,73100.0,-0.45,-1.35,-1.25,0,*68
1504415251.75,28021,17.94,73102.0,-0.45,-1.33,-1.21,0,*6B
1504415252.95,28022,17.94,73100.8,-0.45,-1.33,-1.21,0,*68
1504415254.14,28023,17.94,73094.5,-0.45,-1.33,-1.17,0,*6C
1504415255.33,28024,17.94,73094.3,-0.45,-1.25,-1.17,0,*6C
1504415256.55,28025,17.94,73094.5,-0.47,-1.25,-1.21,0,*6A
1504415257.74,28026,17.94,73096.3,-0.45,-1.33,-1.17,0,*69
1504415258.93,28027,17.94,73104.8,-0.45,-1.25,-1.17,0,*6F
1504415260.12,28028,17.94,73100.5,-0.45,-1.25,-1.17,0,*60
1504415261.31,28029,17.94,73102.3,-0.45,-1.25,-1.21,0,*64
1504415262.51,28030,17.88,73108.5,-0.45,-1.25,-1.21,0,*6C
1504415263.72,28031,17.94,73118.0,-0.43,-1.29,-1.17,0,*62
1504415264.94,28032,17.94,73118.8,-0.43,-1.29,-1.17,0,*61
1504415266.15,28033,17.94,73122.0,-0.43,-1.29,-1.17,0,*60
1504415267.4,28034,17.94,73126.0,-0.43,-1.39,-1.21,0,*63
1504415268.62,28035,17.94,73122.0,-0.43,-1.33,-1.21,0,*68
1504415269.86,28036,17.94,73116.5,-0.43,-1.39,-1.29,0,*69
1504415271.1,28037,17.94,73116.8,-0.43,-1.43,-1.29,0,*65
1504415272.37,28038,17.94,73116.3,-0.43,-1.43,-1.39,0,*6B
1504415273.61,28039,17.94,73112.3,-0.43,-1.51,-1.39,0,*69
1504415274.84,28040,17.94,73112.3,-0.43,-1.51,-1.39,0,*67
1504415276.08,28041,17.94,73114.5,-0.43,-1.63,-1.43,0,*6A
1504415277.32,28042,17.94,73112.8,-0.43,-1.55,-1.39,0,*61
1504415278.56,28043,17.94,73110.3,-0.43,-1.55,-1.39,0,*60
1504415279.77,28044,17.94,73106.0,-0.43,-1.63,-1.51,0,*6C
1504415280.98,28045,17.94,73110.8,-0.43,-1.75,-1.63,0,*6B
1504415282.18,28046,17.94,73112.5,-0.45,-1.71,-1.67,0,*6E
1504415283.4,28047,17.94,73114.5,-0.47,-1.79,-1.67,0,*65
1504415284.61,28048,17.94,73122.0,-0.47,-1.71,-1.59,0,*6F
1504415285.8,28049,17.94,73120.5,-0.45,-1.79,-1.59,0,*64
1504415286.99,28050,17.94,73116.5,-0.45,-1.79,-1.71,0,*66
1504415288.21,28051,17.94,73114.3,-0.45,-1.91,-1.71,0,*61
1504415289.45,28052,17.94,73118.8,-0.47,-1.91,-1.79,0,*68
1504415290.71,28053,17.94,73114.5,-0.47,-1.91,-1.83,0,*6C
1504415291.95,28054,17.94,73118.5,-0.45,-1.91,-1.91,0,*6A
1504415293.19,28055,17.94,73116.8,-0.45,-1.95,-1.91,0,*6F
1504415294.43,28056,17.94,73112.8,-0.45,-1.95,-1.91,0,*6C
1504415295.68,28057,17.94,73110.8,-0.49,-2.07,-1.99,0,*61
1504415296.93,28058,17.94,73104.3,-0.49,-2.11,-1.99,0,*69
1504415298.17,28059,17.94,73106.0,-0.49,-1.99,-1.95,0,*67
1504415299.42,28060,17.94,73104.8,-0.49,-1.99,-1.87,0,*6E
1504415300.67,28061,17.94,73104.3,-0.51,-1.87,-1.71,0,*60
1504415301.89,28062,17.94,73110.3,-0.51,-1.75,-1.71,0,*6E
1504415303.1,28063,17.94,73108.3,-0.51,-1.75,-1.63,0,*6C
1504415304.29,28064,17.94,73104.0,-0.49,-1.63,-1.51,0,*64
1504415305.51,28065,17.94,73104.8,-0.49,-1.59,-1.47,0,*6B
1504415306.75,28066,17.94,73104.8,-0.51,-1.51,-1.39,0,*60